Home > Weather > Cedar Rapids > Past weeks

Flag for USA Past Weather in Cedar Rapids, Iowa, USA — Yesterday and Last 2 Weeks

Now
66 °F

Mostly cloudy.


Feels Like: 66 °F
Forecast: 61 / 80 °F
Wind: 3 mph from Southeast

Location: Cedar Rapids Municipal Airport

Current Time: Jun 30, 2016 at 1:51:49 AM

Latest Report: Jun 30, 2016 at 12:52 AM


Visibility: 10 mi

Pressure: 30.02 "Hg

Humidity: 90%

Dew Point: 63 °F

Location of Cedar RapidsLocation

Past Weather in Cedar Rapids — Graph

°F

Cedar Rapids Temperature Yesterday

Maximum temperature yesterday: 75 °F (at 5:52 PM)
Minimum temperature yesterday: 52 °F (at 4:52 AM)
Average temperature yesterday: 66 °F

High & Low Weather Summary for the Past Weeks

 TemperatureHumidityPressure
High91 °F (Jun 15, 2:52 PM)100% (Jun 15, 1:52 AM)30.21 "Hg (Jun 15, 1:52 AM)
Low52 °F (Jun 29, 4:52 AM)35% (Jun 20, 3:52 PM)29.69 "Hg (Jun 14, 11:52 PM)
Average74 °F76%30.00 "Hg
* Reported Jun 14 11:52 PM — Jun 29 11:52 PM, Cedar Rapids, Weather by CustomWeather, © 2016

Note: Actual official high and low records may vary slightly from our data, if they occured in-between our weather recording intervals... More about our weather records

Advertising

Cedar Rapids Weather History for the Previous 24 Hours

Scroll right to see more
 ConditionsComfort  
Time TempWeatherWind HumidityBarometerVisibility
11:52 PM
Wed, Jun 29
67 °FPartly cloudy.5 mph87%30.03 "Hg10 mi
10:52 PM68 °FOvercast.3 mph87%30.04 "Hg10 mi
9:52 PM67 °FOvercast.No wind90%30.03 "Hg10 mi
8:52 PM69 °FPartly sunny.3 mph81%30.01 "Hg10 mi
7:52 PM70 °FScattered clouds.3 mph76%30.04 "Hg10 mi
6:52 PM73 °FOvercast.No wind62%30.04 "Hg10 mi
5:52 PM75 °FSunny.5 mph60%30.05 "Hg10 mi
4:52 PM74 °FSunny.3 mph60%30.07 "Hg10 mi
3:52 PM74 °FSunny.6 mph62%30.08 "Hg10 mi
2:52 PM72 °FSunny.6 mph64%30.09 "Hg10 mi
1:52 PM73 °FSunny.6 mph62%30.10 "Hg10 mi
12:52 PM71 °FSunny.No wind61%30.13 "Hg10 mi
11:52 AM71 °FSunny.6 mph61%30.14 "Hg10 mi
10:52 AM70 °FSunny.6 mph66%30.14 "Hg10 mi
9:52 AM68 °FSunny.5 mph70%30.14 "Hg10 mi
8:52 AM65 °FSunny.5 mph81%30.14 "Hg10 mi
7:52 AM62 °FSunny.No wind93%30.14 "Hg10 mi
6:52 AM58 °FSunny.No wind100%30.13 "Hg10 mi
5:52 AM54 °FClear.No wind100%30.14 "Hg10 mi
4:52 AM52 °FClear.No wind100%30.15 "Hg10 mi
3:52 AM55 °FClear.No wind100%30.14 "Hg10 mi
2:52 AM56 °FClear.3 mph100%30.14 "Hg10 mi
1:52 AM57 °FClear.No wind96%30.16 "Hg10 mi
Weather by CustomWeather, © 2016

See weather overviewHow to use our weather pages